Flag for Germany Weather past 2 weeks in Kaiserslautern, Rhineland-Palatinate, Germany

Now
34 °F

Light snow. Fog.


Feels Like: 31 °F
Forecast: 29 / 34 °F
Wind: 3 mph from Southwest

Location: Ramstein

Current Time: Feb 1, 2015 at 12:30:14 AM

Latest Report: Jan 31, 2015 at 11:58 PM


Visibility: 3 mi

Pressure: 29.15 "Hg

Humidity: 93%

Dew point: 32 °F

Location of KaiserslauternLocation

Historic Weather in Kaiserslautern — Graph

°F

Kaiserslautern temperature yesterday

Maximum temperature yesterday: 36 °F (at 12:58 PM)
Minimum temperature yesterday: 32 °F (at 12:01 AM)
Average temperature yesterday: 33 °F

Past Weeks' High & Low Weather Summary

 TemperatureHumidityPressure
High43 °F (Jan 17, 2:58 PM)100% (Jan 16, 11:02 PM)30.48 "Hg (Jan 16, 11:02 PM)
Low21 °F (Jan 21, 12:58 AM)65% (Jan 18, 1:58 PM)28.72 "Hg (Jan 30, 2:03 AM)
Average33 °F89%29.84 "Hg
* Reported Jan 16 11:02 PM — Jan 31 11:02 PM, Kaiserslautern, Weather by CustomWeather, © 2014

Note: Actual official high and low records may vary slightly from our data, if they occured in-between our weather recording intervals... More about our weather records

Advertising

Kaiserslautern weather history for previous 24 hours

 ConditionsComfort  
Time TempWeatherWind HumidityBarometerVisibility
11:02 PM
Jan 31
32 °FLight snow. Overcast.5 mph100%29.11 "HgN/A
10:02 PM32 °FLight snow. Mostly cloudy.1 mph87%29.12 "HgN/A
9:58 PM34 °FLight snow. Mostly cloudy.2 mph81%29.17 "HgN/A
8:58 PM34 °FMostly cloudy.2 mph81%29.17 "HgN/A
8:04 PM34 °FOvercast.2 mph87%29.13 "HgN/A
7:58 PM34 °FOvercast.5 mph87%29.17 "HgN/A
7:00 PM34 °FOvercast.6 mph93%29.11 "HgN/A
5:58 PM34 °FOvercast.8 mph93%29.13 "HgN/A
5:02 PM32 °FLight snow. Ice fog.2 mph100%29.07 "Hg2 mi
4:04 PM36 °FLight snow. Overcast.5 mph87%29.05 "HgN/A
3:58 PM35 °FLight rain. Mostly cloudy.5 mph92%29.09 "HgN/A
2:58 PM36 °FLight rain. Mostly cloudy.2 mph87%29.08 "HgN/A
1:58 PM36 °FLight rain. Mostly cloudy.3 mph87%29.08 "HgN/A
12:58 PM36 °FLight rain. Overcast.5 mph81%29.09 "HgN/A
11:58 AM35 °FOvercast.8 mph82%29.09 "HgN/A
10:59 AM34 °FLight snow. Overcast.10 mph87%29.04 "HgN/A
9:58 AM34 °FOvercast.5 mph84%29.07 "HgN/A
9:01 AM32 °FOvercast.7 mph93%29.02 "HgN/A
7:58 AM33 °FLight rain. Mostly cloudy.8 mph85%29.05 "HgN/A
7:03 AM32 °FLight snow. Overcast.6 mph87%28.99 "HgN/A
6:00 AM32 °FLight snow. Mostly cloudy.8 mph87%28.99 "HgN/A
5:03 AM32 °FLight snow. Passing clouds.12 mph87%28.99 "HgN/A
3:58 AM32 °FOvercast.7 mph87%29.03 "HgN/A
3:02 AM32 °FMostly cloudy.7 mph87%28.97 "HgN/A
2:58 AM32 °FMostly cloudy.6 mph87%29.01 "HgN/A
1:58 AM33 °FOvercast.6 mph87%29.00 "HgN/A
12:58 AM32 °FMostly cloudy.1 mph93%29.00 "HgN/A
12:01 AM32 °FLow clouds.5 mph93%28.95 "HgN/A
Weather by CustomWeather, © 2014

See weather overviewHow to use our weather pages